Regional Weather Roundup
Issued by NWS

Home | Current Version | Previous Version | Text Only | Print | Product List | Glossary Off
Versions: 1 2 3 4 5 6 7 8 9 10 11 12 13 14 15 16 17 18 19 20 21 22 23 24 25 26 27 28 29 30 31 32 33 34 35 36 37 38 39 40 41 42 43 44 45 46 47 48 49 50

000
ASUS43 KLSX 241007
RWRMO

WEATHER SUMMARY FOR MISSOURI
NATIONAL WEATHER SERVICE SPRINGFIELD MO
500 AM CDT SUN SEP 24 2017

NOTE: "FAIR" INDICATES FEW OR NO CLOUDS BELOW 12,000 FEET WITH NO
       SIGNIFICANT WEATHER AND/OR OBSTRUCTIONS TO VISIBILITY.
       CURRENT SKY AND/OR WEATHER CONDITIONS ARE NOT AVAILABLE FOR
       CHILLICOTHE AND FARMINGTON.

MOZ001>031-035>038-043-044-053-054-241100-
...NORTHERN AND WESTERN MISSOURI...

CITY           SKY/WX    TMP DP  RH WIND       PRES   REMARKS
KANSAS CTY INT CLEAR     71  66  84 S9        29.95S
KANSAS C DTWN  CLEAR     78  66  66 S8        29.94S
LEE`S SUMMIT   CLEAR     72  67  84 S9        29.97R
ST JOSEPH      CLEAR     65  65 100 CALM      29.93S
CHILLICOTHE      N/A     69  66  90 CALM      29.98S
KIRKSVILLE     CLEAR     64  61  90 CALM      30.01R

$$
MOZ066>068-077>081-088>096-101>105-241100-
...SOUTHWEST MISSOURI...

CITY           SKY/WX    TMP DP  RH WIND       PRES   REMARKS
SPRINGFIELD    CLEAR     68  64  87 SE5       29.99S
JOPLIN         CLEAR     71  67  87 SE5       29.97S
BRANSON          N/A     68  64  88 CALM      30.01S

$$
MOZ032>034-039>042-045>050-055>058-069>072-241100-
...CENTRAL MISSOURI...

CITY           SKY/WX    TMP DP  RH WIND       PRES   REMARKS
COLUMBIA       CLEAR     71  64  78 SE6       30.00S
JEFFERSON CITY CLEAR     68  63  84 SE3       29.99S
ROLLA          CLEAR     68  64  87 SE6       30.02S
SEDALIA        CLEAR     68  66  93 S8        29.99S
WHITEMAN AFB   CLEAR     70  70 100 S6        29.97R
WARRENSBURG    CLEAR     70  64  83 S3        29.97R
OSAGE BEACH    CLEAR     67  63  87 SE3       30.01R

$$
MOZ051-052-059>065-241100-
...EAST CENTRAL MISSOURI...

CITY           SKY/WX    TMP DP  RH WIND       PRES   REMARKS
ST LOUIS INTL  CLEAR     72  64  76 NE6       30.03R
SPIRIT OF STL  CLEAR     66  64  93 CALM      30.01R
ST CHARLES     CLEAR     68  63  84 E5        30.02R

$$
MOZ072>076-082>087-097>100-106>115-241100-
...SOUTH CENTRAL AND SOUTHEAST MISSOURI...

CITY           SKY/WX    TMP DP  RH WIND       PRES   REMARKS
CAPE GIRARDEAU CLEAR     65  64  97 CALM      30.01R FOG
FARMINGTON     CLEAR     65  62  90 CALM      30.04S
POPLAR BLUFF   PTCLDY    66  65  96 CALM      30.00R
WEST PLAINS    CLEAR     65  62  90 CALM      30.04R

$$


USA.gov is the U.S. government's official web portal to all federal, state and local government web resources and services.